Stations météo

réclame
Mon MeteoGroup
Werl, Allemagne (10424): Température de l'air & dewpoint: 15.10.2019 12:00:00 - 21.10.2019 12:00:00 (CEST)Werl, Allemagne (10424): Température de l'air 5cm & Température de l'air -5cm: 15.10.2019 12:00:00 - 21.10.2019 12:00:00 (CEST)Werl, Allemagne (10424): Température de l'air -20cm & Température de l'air -100cm: 15.10.2019 12:00:00 - 21.10.2019 12:00:00 (CEST)Werl, Allemagne (10424): Vitesse du vent & gusts: 15.10.2019 12:00:00 - 21.10.2019 12:00:00 (CEST)Werl, Allemagne (10424): Direction du vent: 15.10.2019 12:00:00 - 21.10.2019 12:00:00 (CEST)Werl, Allemagne (10424): reduced air pressure: 15.10.2019 12:00:00 - 21.10.2019 12:00:00 (CEST)Werl, Allemagne (10424): visibility: 15.10.2019 12:00:00 - 21.10.2019 12:00:00 (CEST)Werl, Allemagne (10424): Ensoleillement: 15.10.2019 12:00:00 - 21.10.2019 12:00:00 (CEST)Werl, Allemagne (10424): Quantités de précipitations: 15.10.2019 12:00:00 - 21.10.2019 12:00:00 (CEST)
Date & Time tt [°C] td [°C] tt 5cm [°C] tt -5cm [°C] tt -20cm [°C] tt -100cm [°C] ff [km/h] ff [knt] fx [km/h] fx [knt] dd ppp [hPa] vv [km] sd [min] rr [mm]
21.10.2019 12:00:00 18,0 13,3 18,4 15,7 12,7 14,2 13 7 23 12 S 1016,3 31 32 0,0
21.10.2019 11:00:00 16,2 13,5 15,7 13,8 12,5 14,2 15 8 25 13 S 1015,8 70 1 0,0
21.10.2019 10:00:00 15,3 13,5 15,0 12,7 12,5 14,2 12 6 16 8 SSE 1014,9 66 7 0,0
21.10.2019 09:00:00 13,2 12,6 12,6 12,0 12,5 14,2 4 2 10 5 ESE 1013,9 31 0 0,0
21.10.2019 08:00:00 12,1 12,0 11,6 12,0 12,5 14,2 5 3 11 6 SE 1012,9 12 0 0,0
21.10.2019 07:00:00 11,2 11,2 11,2 12,0 12,6 14,2 2 1 6 3 E 1012,8 0,2 0 0,0
21.10.2019 06:00:00 11,2 11,2 10,8 12,1 12,6 14,3 0 0 4 2 N 1012,7 0,3 0 0,0
21.10.2019 05:00:00 11,6 11,6 11,8 12,3 12,6 14,3 3 2 4 2 NNW 1011,7 0,1 0 0,0
21.10.2019 04:00:00 11,9 11,9 12,0 12,3 12,6 14,3 4 2 7 4 NE 1010,9 0,1 0 0,0
21.10.2019 03:00:00 11,9 11,9 12,0 12,2 12,6 14,3 7 4 11 6 NNW 1010,6 0,4 0 0,0
21.10.2019 02:00:00 12,1 11,9 12,0 12,4 12,7 14,3 6 3 12 6 NE 1010,9 1,9 0 0,3
21.10.2019 01:00:00 12,1 12,0 12,2 12,5 12,7 14,3 3 2 13 7 SSE 1011,4 2,3 0 1,3
21.10.2019 00:00:00 12,2 12,1 12,3 12,5 12,7 14,3 8 4 11 6 W 1011,0 1,6 0 0,6
20.10.2019 23:00:00 12,3 12,1 12,4 12,5 12,7 14,3 5 3 8 5 SW 1010,1 2,8 0 0,0
20.10.2019 22:00:00 12,3 12,1 12,3 12,5 12,7 14,3 3 1 8 4 N 1009,3 4,0 0 0,3
20.10.2019 21:00:00 12,1 12,0 12,2 12,5 12,7 14,3 7 4 9 5 N 1008,9 3,8 0 1,5
20.10.2019 20:00:00 12,4 12,3 12,4 12,6 12,7 14,3 6 3 13 7 NE 1008,8 3,7 0 0,8
20.10.2019 19:00:00 12,4 12,1 12,4 12,6 12,7 14,3 6 3 18 10 NNE 1008,5 6 0 1,2
20.10.2019 18:00:00 12,2 12,0 12,2 12,6 12,7 14,3 6 3 12 7 NNE 1008,6 4,8 0 3,4
20.10.2019 17:00:00 12,1 11,8 12,1 12,7 12,7 14,3 10 5 24 13 NNW 1008,5 4,3 0 3,0
20.10.2019 16:00:00 12,1 11,7 12,2 12,9 12,7 14,3 11 6 20 11 NE 1008,5 4,0 0 2,8
20.10.2019 15:00:00 12,5 11,8 12,6 13,2 12,6 14,3 10 5 17 9 NE 1009,0 7 0 0,6
20.10.2019 14:00:00 12,4 11,4 12,4 13,1 12,5 14,4 11 6 16 9 ENE 1009,2 10 0 0,6
20.10.2019 13:00:00 12,4 11,8 12,6 12,8 12,4 14,4 8 4 12 6 ENE 1009,2 6 0 1,8
20.10.2019 12:00:00 12,6 11,6 12,8 12,8 12,2 14,4 5 3 9 5 ENE 1009,3 21 0 0,0
20.10.2019 11:00:00 12,2 11,4 12,4 12,2 12,2 14,4 4 2 7 4 E 1009,3 24 0 0,0
20.10.2019 10:00:00 11,7 11,3 11,9 11,8 12,1 14,4 4 2 6 3 NE 1009,0 11 0 0,0
20.10.2019 09:00:00 11,4 11,2 11,4 11,5 12,1 14,4 3 2 5 3 E 1008,9 9 0 0,0
20.10.2019 08:00:00 11,1 10,8 11,0 11,4 12,1 14,4 4 2 4 2 NE 1008,5 7 0 0,0
20.10.2019 07:00:00 11,0 10,8 10,7 11,3 12,2 14,4 3 2 4 2 E 1008,4 8 0 0,0
20.10.2019 06:00:00 11,0 10,7 10,5 11,3 12,2 14,4 0 0 6 3 N 1008,2 16 0 0,0
20.10.2019 05:00:00 11,4 11,0 10,7 11,3 12,3 14,4 4 2 6 3 S 1007,7 19 0 0,3
20.10.2019 04:00:00 11,4 10,8 10,8 11,4 12,3 14,4 4 2 6 3 S 1007,9 12 0 0,5
20.10.2019 03:00:00 10,7 10,2 10,2 11,4 12,4 14,4 3 1 5 3 SE 1007,9 21 0 0,0
20.10.2019 02:00:00 11,3 10,2 10,3 11,4 12,5 14,4 4 2 8 5 SSW 1008,0 63 0 0,0
20.10.2019 01:00:00 10,5 10,0 10,1 11,4 12,6 14,4 5 3 7 4 S 1007,9 14 0 0,0
20.10.2019 00:00:00 10,7 10,0 9,3 11,7 12,7 14,4 2 1 8 5 NW 1007,4 23 0 0,0
19.10.2019 23:00:00 11,4 11,0 11,0 12,1 12,7 14,4 6 4 9 5 SSE 1007,4 23 0 0,0
19.10.2019 22:00:00 12,2 11,2 11,7 12,3 12,8 14,4 6 3 10 5 S 1007,1 40 0 0,0
19.10.2019 21:00:00 11,9 11,5 11,3 12,4 12,9 14,4 3 2 6 3 SW 1006,5 18 0 0,0
19.10.2019 20:00:00 12,6 11,6 11,9 12,6 12,9 14,5 5 3 14 7 SSW 1006,3 55 0 0,1
19.10.2019 19:00:00 13,0 11,9 12,2 12,9 12,9 14,5 6 4 11 6 SW 1006,0 31 0 0,3
19.10.2019 18:00:00 13,2 12,0 12,5 13,3 12,9 14,5 3 1 7 4 SSW 1005,4 14 0 0,2
19.10.2019 17:00:00 13,5 11,6 12,7 13,5 12,8 14,5 6 4 23 12 S 1005,4 18 0 1,5
19.10.2019 16:00:00 14,7 11,3 13,2 14,0 12,6 14,5 16 9 39 21 SSW 1005,2 15 9 0,3
19.10.2019 15:00:00 16,2 10,6 17,3 14,2 12,3 14,5 22 12 40 22 S 1004,8 66 6 0,0
19.10.2019 14:00:00 15,4 10,2 15,5 14,0 12,0 14,5 27 15 43 23 SSW 1005,2 70 14 0,0
19.10.2019 13:00:00 14,7 10,1 15,6 13,1 11,8 14,5 22 12 39 21 S 1005,7 67 0 0,0
19.10.2019 12:00:00 13,8 9,5 13,6 12,1 11,6 14,5 21 11 39 21 S 1005,9 70 0 0,1
19.10.2019 11:00:00 13,8 9,4 13,2 11,6 11,4 14,5 18 10 34 18 S 1006,0 39 1 0,0
19.10.2019 10:00:00 13,5 8,8 13,6 10,9 11,3 14,5 19 10 34 19 S 1005,8 70 21 0,0
19.10.2019 09:00:00 11,9 8,2 11,8 10,0 11,3 14,5 14 8 26 14 SSE 1006,3 70 4 0,0
19.10.2019 08:00:00 11,8 7,8 10,4 9,7 11,3 14,5 16 9 32 17 S 1006,3 70 0 0,0
19.10.2019 07:00:00 11,9 7,5 10,9 9,6 11,3 14,5 17 9 26 14 S 1006,8 70 0 0,0
19.10.2019 06:00:00 11,4 7,2 10,2 9,3 11,4 14,5 16 9 34 18 S 1007,4 70 0 0,0
19.10.2019 05:00:00 10,4 6,8 8,7 9,1 11,5 14,5 13 7 23 12 S 1007,7 70 0 0,0
19.10.2019 04:00:00 10,8 6,7 9,2 9,2 11,6 14,5 16 9 26 14 S 1007,9 70 0 0,0
19.10.2019 03:00:00 10,5 6,4 8,7 9,1 11,8 14,5 16 9 25 14 S 1008,4 70 0 0,0
19.10.2019 02:00:00 10,5 6,5 8,2 9,5 11,9 14,5 10 5 21 12 S 1008,6 70 0 0,0
19.10.2019 01:00:00 11,6 6,5 9,9 9,7 12,1 14,5 12 7 29 16 S 1008,7 70 0 0,0
19.10.2019 00:00:00 11,6 6,4 9,9 9,7 12,3 14,5 16 8 27 14 S 1008,7 70 0 0,0
18.10.2019 23:00:00 11,5 6,2 9,9 9,8 12,5 14,5 17 9 28 15 S 1008,9 70 0 0,0
18.10.2019 22:00:00 11,4 6,5 9,7 10,0 12,7 14,5 16 9 30 16 S 1009,0 70 0 0,0
18.10.2019 21:00:00 11,1 6,3 9,3 10,2 12,9 14,5 14 8 26 14 S 1008,9 70 0 0,0
18.10.2019 20:00:00 11,7 6,5 9,7 10,7 13,2 14,5 14 8 29 16 SSW 1008,9 70 0 0,0
18.10.2019 19:00:00 11,9 6,9 10,2 11,3 13,4 14,5 17 9 36 19 SSW 1008,5 70 5 0,0
18.10.2019 18:00:00 12,9 7,2 11,5 12,1 13,6 14,5 19 11 44 24 SW 1007,9 70 55 0,0
18.10.2019 17:00:00 13,3 7,4 13,1 12,7 13,7 14,5 27 14 45 25 SW 1007,1 43 60 0,0
18.10.2019 16:00:00 13,1 7,8 12,9 13,3 13,8 14,5 31 17 51 28 SW 1006,7 60 11 0,0
18.10.2019 15:00:00 12,6 7,6 11,7 13,3 13,9 14,5 26 14 48 26 SSW 1005,9 70 0 0,1
18.10.2019 14:00:00 11,8 8,3 11,0 14,3 13,8 14,5 26 14 80 43 SSW 1005,8 70 13 1,4
18.10.2019 13:00:00 17,6 10,3 18,7 15,8 13,5 14,5 33 18 52 28 S 1004,2 21 44 0,0
18.10.2019 12:00:00 17,4 11,0 18,4 14,8 13,3 14,5 23 13 43 23 S 1005,3 30 48 0,0
18.10.2019 11:00:00 16,2 11,1 15,6 13,3 13,2 14,5 22 12 39 21 S 1006,0 70 11 0,0
18.10.2019 10:00:00 15,4 10,8 14,4 12,6 13,2 14,5 23 12 39 21 S 1006,6 70 0 0,0
18.10.2019 09:00:00 14,8 10,7 13,7 12,1 13,2 14,5 21 12 31 17 S 1006,7 70 0 0,0
18.10.2019 08:00:00 14,2 10,4 13,0 12,0 13,3 14,5 16 9 34 18 S 1006,9 70 0 0,0
18.10.2019 07:00:00 14,1 10,4 12,9 11,8 13,4 14,5 14 8 26 14 S 1007,3 70 0 0,0
18.10.2019 06:00:00 13,2 10,2 11,2 11,8 13,6 14,5 5 3 23 12 S 1008,6 70 0 0,0
18.10.2019 05:00:00 13,1 10,1 11,0 11,8 13,8 14,5 13 7 22 12 S 1009,2 70 0 0,0
18.10.2019 04:00:00 13,2 10,6 10,6 12,2 14,0 14,5 10 5 16 9 S 1009,4 70 0 0,0
18.10.2019 03:00:00 12,4 10,9 10,0 12,9 14,1 14,5 7 4 18 10 SW 1009,8 70 0 0,0
18.10.2019 02:00:00 14,6 12,0 13,5 13,6 14,2 14,5 11 6 22 12 SSW 1009,8 70 0 0,1
18.10.2019 01:00:00 14,7 12,2 14,0 13,6 14,3 14,5 10 6 18 10 SSW 1009,8 70 0 0,0
18.10.2019 00:00:00 14,9 12,4 13,7 13,9 14,4 14,5 10 5 24 13 S 1009,9 70 0 0,0
17.10.2019 23:00:00 15,2 12,2 14,4 14,1 14,5 14,5 14 7 24 13 S 1010,2 15 0 0,0
17.10.2019 22:00:00 14,8 12,7 13,9 14,2 14,6 14,5 11 6 29 16 S 1010,2 70 0 0,0
17.10.2019 21:00:00 15,5 12,2 14,8 14,3 14,6 14,5 15 8 23 12 S 1010,2 70 0 0,0
17.10.2019 20:00:00 15,5 12,4 14,6 14,5 14,7 14,5 12 6 22 12 S 1010,4 66 0 0,0
17.10.2019 19:00:00 15,7 12,3 14,7 14,9 14,8 14,5 10 6 16 9 S 1010,3 70 0 0,0
17.10.2019 18:00:00 15,9 12,6 15,0 15,6 14,8 14,5 9 5 15 8 S 1010,5 70 0 0,0
17.10.2019 17:00:00 15,2 13,3 15,1 15,9 14,7 14,5 3 1 21 11 SSW 1010,8 12 0 0,0
17.10.2019 16:00:00 16,1 12,1 16,0 16,3 14,6 14,5 13 7 25 14 SW 1011,3 70 1 0,0
17.10.2019 15:00:00 16,3 12,3 17,1 16,5 14,3 14,5 10 6 27 15 WSW 1011,5 70 13 0,0
17.10.2019 14:00:00 16,1 12,1 17,2 16,2 14,1 14,5 19 11 39 21 WSW 1011,4 70 15 0,0
17.10.2019 13:00:00 16,8 12,5 18,5 15,4 13,9 14,5 18 10 36 19 SW 1011,1 70 6 0,0
17.10.2019 12:00:00 15,5 12,7 15,8 14,9 13,7 14,5 18 10 37 20 SW 1011,2 54 0 0,0
17.10.2019 11:00:00 15,4 12,3 15,7 14,3 13,6 14,5 19 10 31 17 SW 1010,8 70 0 0,0
17.10.2019 10:00:00 14,7 12,3 14,8 13,5 13,6 14,5 18 10 30 16 SSW 1010,4 70 0 0,0
17.10.2019 09:00:00 14,7 11,5 14,3 13,2 13,6 14,5 17 9 29 16 SSW 1010,0 70 0 0,0
17.10.2019 08:00:00 14,4 11,3 14,0 13,1 13,7 14,5 17 9 30 16 SSW 1009,3 70 0 0,0
17.10.2019 07:00:00 14,5 11,1 14,0 13,1 13,7 14,5 23 12 36 19 SSW 1008,8 70 0 0,0
17.10.2019 06:00:00 14,5 11,1 14,0 13,1 13,7 14,5 21 11 40 21 SSW 1008,9 70 0 0,0
17.10.2019 05:00:00 14,7 10,7 14,1 13,1 13,8 14,5 22 12 35 19 SSW 1008,7 70 0 0,0
17.10.2019 04:00:00 14,4 10,7 13,7 13,1 13,8 14,5 18 10 36 19 S 1008,6 70 0 0,0
17.10.2019 03:00:00 14,5 10,8 13,8 13,2 13,9 14,4 17 9 34 19 SSW 1008,9 70 0 0,0
17.10.2019 02:00:00 14,6 10,9 13,3 13,3 13,9 14,4 19 10 35 19 S 1009,0 70 0 0,2
17.10.2019 01:00:00 14,9 11,0 13,5 13,4 14,0 14,4 20 11 37 20 SSW 1009,2 40 0 0,0
17.10.2019 00:00:00 15,0 11,2 14,3 13,5 14,1 14,4 21 11 36 19 SSW 1009,2 70 0 0,0
16.10.2019 23:00:00 14,8 11,4 14,3 13,5 14,1 14,4 21 11 36 19 SSW 1009,4 70 0 0,0
16.10.2019 22:00:00 14,6 11,6 14,1 13,6 14,2 14,4 17 9 36 19 SSW 1009,3 70 0 0,0
16.10.2019 21:00:00 14,5 11,4 14,0 13,6 14,3 14,4 16 8 29 16 SSW 1009,2 70 0 0,0
16.10.2019 20:00:00 14,5 11,1 14,0 13,8 14,4 14,4 17 9 33 18 S 1009,4 70 0 0,0
16.10.2019 19:00:00 14,3 10,9 13,9 14,0 14,5 14,4 18 10 36 19 SSW 1009,3 70 0 0,0
16.10.2019 18:00:00 14,5 11,0 14,2 14,5 14,6 14,4 14 8 35 19 SSW 1009,1 70 0 0,0
16.10.2019 17:00:00 14,7 10,7 14,5 14,9 14,6 14,4 22 12 35 19 SSW 1009,2 70 0 0,0
16.10.2019 16:00:00 14,8 10,7 14,9 15,3 14,5 14,4 19 11 38 20 SSW 1009,4 70 1 0,0
16.10.2019 15:00:00 15,0 10,1 15,6 15,8 14,4 14,4 22 12 36 19 SSW 1009,6 70 17 0,0
16.10.2019 14:00:00 15,7 9,8 17,5 16,5 14,1 14,4 26 14 39 21 SSW 1009,7 33 58 0,0
16.10.2019 13:00:00 15,4 10,0 17,0 15,8 13,8 14,4 19 11 36 20 SSW 1010,3 40 59 0,0
16.10.2019 12:00:00 14,7 10,1 16,2 14,6 13,6 14,4 24 13 37 20 SSW 1010,6 24 56 0,0
16.10.2019 11:00:00 13,2 9,3 13,1 13,2 13,6 14,4 17 9 31 17 SSW 1010,9 53 13 0,0
16.10.2019 10:00:00 12,4 10,0 12,2 12,6 13,7 14,4 13 7 19 11 SSW 1010,9 34 0 0,0
16.10.2019 09:00:00 11,4 10,0 10,9 12,3 13,8 14,4 12 7 21 12 SW 1010,6 27 0 0,1
16.10.2019 08:00:00 11,4 9,5 10,5 12,4 13,9 14,4 8 5 24 13 SW 1010,1 49 0 0,0
16.10.2019 07:00:00 12,1 9,6 11,2 12,8 14,1 14,4 16 9 27 15 WSW 1009,9 41 0 0,0
16.10.2019 06:00:00 12,3 10,8 11,6 12,9 14,2 14,4 14 8 22 12 SW 1009,8 19 0 0,1
16.10.2019 05:00:00 12,3 11,0 11,7 13,1 14,3 14,3 10 5 19 11 SW 1009,7 24 0 0,1
16.10.2019 04:00:00 12,6 11,0 11,9 13,3 14,5 14,3 14 8 25 13 WSW 1009,7 21 0 0,2
16.10.2019 03:00:00 12,6 11,2 12,0 13,5 14,6 14,3 14 8 29 16 WSW 1009,2 18 0 0,0
16.10.2019 02:00:00 12,7 11,6 12,3 13,7 14,7 14,3 16 9 25 14 WSW 1009,1 17 0 0,7
16.10.2019 01:00:00 12,7 12,1 12,5 13,9 14,9 14,3 10 5 19 10 WSW 1008,8 8 0 2,0
16.10.2019 00:00:00 12,6 12,1 12,5 14,1 15,0 14,3 11 6 24 13 WSW 1008,6 7 0 1,2
15.10.2019 23:00:00 13,1 12,5 12,9 14,5 15,2 14,3 14 8 31 17 WSW 1008,2 4,9 0 2,3
15.10.2019 22:00:00 14,0 13,6 13,8 14,9 15,3 14,3 13 7 21 12 W 1007,4 4,5 0 1,8
15.10.2019 21:00:00 14,4 14,0 14,3 15,3 15,4 14,3 11 6 16 9 W 1007,5 3,3 0 2,9
15.10.2019 20:00:00 14,9 14,4 14,6 15,6 15,5 14,3 6 3 10 6 W 1007,1 4,9 0 2,5
15.10.2019 19:00:00 15,1 14,2 14,7 16,0 15,6 14,3 6 4 12 7 WNW 1006,3 9 0 0,2
15.10.2019 18:00:00 16,0 14,0 15,2 16,6 15,6 14,3 8 4 12 6 W 1006,3 39 0 0,3
15.10.2019 17:00:00 17,2 13,8 17,0 17,2 15,5 14,3 9 5 17 9 W 1006,1 50 0 0,0
15.10.2019 16:00:00 17,9 14,1 18,5 17,5 15,4 14,3 12 6 19 10 WNW 1006,3 38 0 0,0
15.10.2019 15:00:00 17,8 13,6 18,3 17,5 15,2 14,3 11 6 19 10 WNW 1006,4 29 0 0,0
15.10.2019 14:00:00 18,2 14,2 19,0 17,9 14,8 14,2 13 7 19 10 W 1006,3 24 27 0,0
15.10.2019 13:00:00 19,2 14,9 22,0 17,8 14,4 14,2 12 7 19 10 WNW 1006,3 33 59 0,0
15.10.2019 12:00:00 18,9 14,5 21,4 16,7 14,1 14,2 12 6 17 9 WNW 1006,4 35 54 0,0

tt = Température de l'air
td = dewpoint
tt 5cm = Température de l'air 5cm
tt -5cm = Température de l'air -5cm
tt -20cm = Température de l'air -20cm
tt -100cm = Température de l'air -100cm
ff = Vitesse du vent
fx = gusts
dd = Direction du vent
ppp = reduced air pressure
vv = visibility
sd = Ensoleillement
rr = Quantités de précipitations

stations d'obs. à proximité